リニア彗星

219P/LINEAR (2017)

English version
Home page
Updated on October 8, 2017

---------------------------------------------------------------------

・ プロフィール

・ 写真集

・ 軌道要素

Epoch 2017 Feb. 16.0 TT = JDT 2457800.5
T 2017 Feb. 20.61927 TT                                 MPCW
q   2.3652331            (2000.0)            P               Q
n   0.14118210     Peri.  107.40996     +0.91503570     +0.37224815
a   3.6527193      Node   231.02512     -0.40197296     +0.87356291
e   0.3524733      Incl.   11.52864     +0.03357688     +0.31355885
P   6.98
From 519 observations 2002 June 5-2016 May 15, mean residual 0".7.
     Nongravitational parameters A1 = -1.63, A2 = -0.0974.

・ 星図

・ 光度変化

        m1 = 7.3 + 5 logΔ + 20 log r(t + 70)

---------------------------------------------------------------------

軌道要素はM.P.E.C. 2016-K18に掲載されたものです。
星図はステラナビゲータ Ver.8 (アストロアーツ) で作成したものです。
光度グラフはComet for Windowsで作成したものです。

---------------------------------------------------------------------

Copyright(C) Seiichi Yoshida (comet@aerith.net). All rights reserved.